Flag for U.S.A. Weather past 2 weeks in Bakersfield, California, U.S.A.

Now
61 °F

Sunny.


Feels Like: 61 °F
Forecast: 50 / 61 °F
Wind: No wind

Location: Meadows Field

Current Time: Jan 30, 2015 at 1:36:48 PM

Latest Report: Jan 30, 2015 at 12:54 PM


Visibility: 4 mi

Pressure: 29.92 "Hg

Humidity: 65%

Dew point: 49 °F

Location of BakersfieldLocation

Historic Weather in Bakersfield — Graph

°F

Bakersfield temperature yesterday

Maximum temperature yesterday: 64 °F (at 12:54 PM)
Minimum temperature yesterday: 52 °F (at 3:54 AM)
Average temperature yesterday: 57 °F

Past Weeks' High & Low Weather Summary

 TemperatureHumidityPressure
High66 °F (Jan 27, 3:54 PM)100% (Jan 24, 7:54 AM)30.39 "Hg (Jan 24, 7:54 AM)
Low37 °F (Jan 24, 2:54 AM)54% (Jan 27, 1:54 PM)29.96 "Hg (Jan 30, 11:54 AM)
Average50 °F83%30.20 "Hg
* Reported Jan 15 11:54 AM — Jan 30 11:54 AM, Bakersfield, Weather by CustomWeather, © 2014

Note: Actual official high and low records may vary slightly from our data, if they occured in-between our weather recording intervals... More about our weather records

Advertising

Bakersfield weather history for previous 24 hours

 ConditionsComfort  
Time TempWeatherWind HumidityBarometerVisibility
11:54 AM
Jan 30
59 °FSunny.No wind78%29.96 "Hg1 mi
10:54 AM55 °FFog.No wind90%29.99 "Hg1 mi
9:54 AM54 °FFog.No wind90%29.99 "Hg0 mi
8:54 AM53 °FFog.5 mph93%29.99 "Hg1 mi
7:54 AM52 °FFog.No wind89%29.99 "Hg1 mi
7:01 AM51 °FFog.No wind92%30.00 "Hg1 mi
5:54 AM52 °FFog.6 mph89%30.00 "Hg2 mi
4:54 AM52 °FFog.No wind93%29.99 "Hg2 mi
4:01 AM53 °FFog.No wind86%30.00 "Hg2 mi
2:54 AM54 °FFog.3 mph86%30.00 "Hg2 mi
2:02 AM56 °FHaze.No wind84%30.03 "Hg2 mi
1:54 AM54 °FFog.No wind86%30.02 "Hg3 mi
12:54 AM57 °FPassing clouds.No wind81%30.03 "Hg3 mi
11:54 PM
Jan 29
57 °FOvercast.No wind81%30.05 "Hg3 mi
10:54 PM58 °FOvercast.3 mph81%30.06 "Hg3 mi
9:54 PM58 °FOvercast.No wind81%30.07 "Hg5 mi
8:54 PM58 °FPassing clouds.No wind78%30.07 "Hg5 mi
7:54 PM59 °FOvercast.5 mph78%30.07 "Hg6 mi
6:54 PM57 °FPassing clouds.3 mph83%30.06 "Hg5 mi
5:54 PM59 °FOvercast.5 mph75%30.06 "Hg3 mi
4:54 PM61 °FPartly sunny.8 mph72%30.05 "Hg3 mi
3:54 PM63 °FSunny.No wind65%30.05 "Hg3 mi
2:54 PM63 °FHaze.6 mph68%30.04 "Hg4 mi
1:54 PM64 °FSunny.5 mph63%30.05 "Hg4 mi
Weather by CustomWeather, © 2014

See weather overviewHow to use our weather pages